Location: Lake Zurich
(42.1970°N, 88.0930°W)
Time: 23:50:54
(UTC-05:00)

Amateur Radio Satellites - All Passes

Search period start: 25 April 2015 23:20
Search period end: 26 April 2015 23:20
Location: Lake Zurich, 42.1970°N, 88.0930°W

Satellite Date Start Highest point End Downlink Frequencies (MHz)
Time Altitude Azimuth
FUNcube-1 25 Apr 23:21:32 23:24:15 16° 271° (W) 23:26:50 145.935
UKube-1 25 Apr 23:25:54 23:29:14 21° 267° (W) 23:32:29 .
YUBILEINY 25 Apr 23:28:49 23:36:52 41° 272° (W) 23:44:42 435.215
TIGRISAT 25 Apr 23:32:58 23:37:43 77° 102° (ESE) 23:42:21 435.000
NANOSAT C BR1 25 Apr 23:33:05 23:37:03 37° 97° (E) 23:41:03 145.865
POPSAT HIP 1 25 Apr 23:36:17 23:40:20 40° 98° (E) 23:44:24 437.405
UNISAT 6 25 Apr 23:37:21 23:42:06 88° 103° (ESE) 23:46:45 437.425
SPROUT 25 Apr 23:38:48 23:42:35 32° 70° (ENE) 23:46:26 437.525
HUMSAT D 25 Apr 23:40:27 23:43:27 18° 269° (W) 23:46:21 437.325/437.525
PHONESAT 2.4 25 Apr 23:49:06 23:49:47 10° 213° (SSW) 23:50:22 2401.200-2431.200
VELOX 1 25 Apr 23:50:29 23:54:06 24° 266° (W) 23:57:40 145.980
CUBEBUG 1 25 Apr 23:54:39 23:58:47 43° 261° (W) 00:02:55 437.445
BUGSAT 1 26 Apr 00:00:04 00:04:08 51° 100° (E) 00:08:13 437.445
Cosmos 2504 26 Apr 00:02:12 00:09:32 37° 70° (ENE) 00:16:28 435.465 / 435.565
POLYITAN 1 26 Apr 00:05:57 00:10:17 89° 102° (ESE) 00:14:37 437.675
DUCHIFAT 1 26 Apr 00:06:46 00:11:04 87° 103° (ESE) 00:15:22 145.980
AISAT 26 Apr 00:09:37 00:12:18 15° 270° (W) 00:14:50 437.250
ANTELSAT 26 Apr 00:19:46 00:24:05 35° 290° (WNW) 00:28:18 437.575/2403.000
QB50P1 26 Apr 00:24:27 00:28:41 58° 287° (WNW) 00:32:53 145.935-145.965
AIST 1 26 Apr 00:31:47 00:35:49 41° 93° (E) 00:39:53
RS-15 26 Apr 00:42:56 00:54:08 56° 246° (WSW) 01:05:40 29.354- 29.394
TISAT 1 26 Apr 00:42:57 00:47:04 60° 259° (W) 00:51:14 437.305
ESTCUBE 1 26 Apr 00:50:29 00:52:08 11° 272° (W) 00:53:31 437.505/2401.250
QB50P2 26 Apr 00:51:01 00:54:47 30° 290° (WNW) 00:58:31 145.880/145.840
ITUPSAT 1 26 Apr 00:54:12 00:58:17 29° 68° (ENE) 01:02:27 437.325
NANOSAT C BR1 26 Apr 01:09:28 01:12:41 21° 293° (WNW) 01:15:49 145.865
TIGRISAT 26 Apr 01:11:41 01:13:52 13° 298° (WNW) 01:15:49 435.000
POPSAT HIP 1 26 Apr 01:12:52 01:15:59 19° 293° (WNW) 01:18:58 437.405
SPROUT 26 Apr 01:15:22 01:18:45 22° 267° (W) 01:22:05 437.525
UNISAT 6 26 Apr 01:16:38 01:18:13 11° 299° (WNW) 01:19:33 437.425
Cosmos 2491 26 Apr 01:18:23 01:24:34 20° 301° (WNW) 01:30:22 435.465 / 435.565
BEESAT 26 Apr 01:24:10 01:28:51 58° 73° (ENE) 01:33:35 436.000
SWISSCUBE 26 Apr 01:26:41 01:31:25 67° 74° (ENE) 01:36:11 437.505
Oscar 19 26 Apr 01:27:44 01:31:40 22° 92° (E) 01:35:43 437.125/150
BUGSAT 1 26 Apr 01:36:51 01:39:15 15° 295° (WNW) 01:41:31 437.445
Cosmos 2504 26 Apr 01:55:35 02:03:05 44° 272° (W) 02:10:00 435.465 / 435.565
GONETS M04 26 Apr 01:56:03 02:00:39 15° 55° (NE) 02:05:45
ITAMSAT 1 26 Apr 02:03:58 02:06:33 14° 88° (E) 02:09:24 435.822/435.867
BEESAT 3 26 Apr 02:04:50 02:07:49 20° 113° (ESE) 02:10:56 437.485
BEESAT 2 26 Apr 02:06:52 02:09:36 18° 112° (ESE) 02:12:28 435.950
STARS 26 Apr 02:10:40 02:13:53 21° 66° (ENE) 02:17:14 437.465
AIST 1 26 Apr 02:10:52 02:13:44 17° 291° (WNW) 02:16:28
ITUPSAT 1 26 Apr 02:31:52 02:36:08 31° 264° (W) 02:40:22 437.325
Gurwin Techsat 1B 26 Apr 02:34:07 02:38:25 25° 93° (E) 02:42:47 435.225
KKS-1 26 Apr 02:51:47 02:56:13 87° 76° (ENE) 03:00:42 437.445
BEESAT 26 Apr 03:04:16 03:07:09 15° 270° (W) 03:09:51 436.000
Oscar 19 26 Apr 03:06:18 03:11:18 47° 290° (WNW) 03:16:14 437.125/150
SWISSCUBE 26 Apr 03:07:27 03:09:50 13° 272° (W) 03:11:58 437.505
AIST 2 26 Apr 03:08:24 03:11:54 26° 114° (ESE) 03:15:31 435.215
CUSAT 1 26 Apr 03:10:07 03:16:33 31° 68° (ENE) 03:23:45 437.405
MOZHAYETS 4 26 Apr 03:23:22 03:25:38 14° 63° (ENE) 03:28:07
HORYU 2 26 Apr 03:28:49 03:31:20 15° 90° (E) 03:34:02 437.375
ITAMSAT 1 26 Apr 03:41:30 03:46:40 71° 287° (WNW) 03:51:50 435.822/435.867
BEESAT 3 26 Apr 03:41:44 03:45:36 39° 309° (NW) 03:49:31 437.485
BEESAT 2 26 Apr 03:43:26 03:47:24 45° 308° (NW) 03:51:26 435.950
STARS 26 Apr 03:46:02 03:50:08 38° 262° (W) 03:54:15 437.465
GONETS M04 26 Apr 03:50:38 03:59:31 73° 79° (E) 04:08:20
DANDE 26 Apr 03:51:09 03:58:11 46° 73° (ENE) 04:06:18 436.750
AO-7 26 Apr 04:05:57 04:13:04 32° 95° (E) 04:20:22 29.400- 29.500
Gurwin Techsat 1B 26 Apr 04:13:34 04:18:35 42° 290° (WNW) 04:23:33 435.225
Cosmos 2499 26 Apr 04:23:19 04:28:38 20° 61° (ENE) 04:34:00 435.465 / 435.565
JAS-2 26 Apr 04:37:57 04:44:07 51° 97° (E) 04:49:36 435.910
AIST 2 26 Apr 04:46:27 04:50:23 34° 311° (NW) 04:54:20 435.215
CUSAT 1 26 Apr 04:52:11 04:59:44 64° 264° (W) 05:07:57 437.405
AUBIESAT-1 26 Apr 04:57:38 05:00:58 20° 60° (ENE) 05:04:26 437.475
MOZHAYETS 4 26 Apr 04:57:45 05:02:23 68° 259° (W) 05:07:02
CUBESAT XI-V 26 Apr 05:01:46 05:03:18 12° 62° (ENE) 05:05:02 437.345
HORYU 2 26 Apr 05:03:58 05:08:22 53° 287° (WNW) 05:12:43 437.375
STRAND 1 26 Apr 05:19:11 05:19:53 10° 58° (ENE) 05:20:53 437.568
PRISM 26 Apr 05:23:56 05:25:02 11° 63° (ENE) 05:26:21 437.425
DANDE 26 Apr 05:34:28 05:41:29 42° 268° (W) 05:49:16 436.750
M-CUBED/EXP-1 PRIME 26 Apr 05:48:36 05:53:22 64° 69° (ENE) 05:58:10 437.505
GONETS M04 26 Apr 05:48:48 05:55:37 25° 278° (W) 06:02:03
AO-7 26 Apr 05:58:13 06:06:22 60° 294° (WNW) 06:14:28 29.400- 29.500
Cosmos 2499 26 Apr 06:15:09 06:22:59 79° 264° (W) 06:30:14 435.465 / 435.565
JAS-2 26 Apr 06:23:39 06:28:50 26° 299° (WNW) 06:33:27 435.910
AUBIESAT-1 26 Apr 06:30:40 06:35:22 56° 255° (WSW) 06:40:06 437.475
CUTE-I 26 Apr 06:34:38 06:39:20 32° 95° (E) 06:44:04 437.470
CUBESAT XI-V 26 Apr 06:35:31 06:40:10 81° 258° (WSW) 06:44:48 437.345
CUSAT 1 26 Apr 06:38:18 06:41:36 13° 278° (W) 06:44:21 437.405
Cubesat XI-IV 26 Apr 06:44:15 06:49:12 39° 97° (E) 06:54:11 437.490
STRAND 1 26 Apr 06:53:13 06:58:19 76° 74° (ENE) 07:03:27 437.568
PRISM 26 Apr 06:55:51 07:00:00 72° 258° (WSW) 07:04:10 437.425
M-CUBED/EXP-1 PRIME 26 Apr 07:25:42 07:28:39 16° 266° (W) 07:31:24 437.505
O/OREOS (USA 219) 26 Apr 07:45:44 07:49:59 40° 61° (ENE) 07:54:12 437.305
AO-7 26 Apr 07:53:24 07:57:38 15° 314° (NW) 08:01:28 29.400- 29.500
BRITE-PL 26 Apr 08:04:48 08:08:29 20° 91° (E) 08:12:29 437.365/2234.400
Cosmos 2499 26 Apr 08:11:27 08:14:49 13° 283° (WNW) 08:17:35 435.465 / 435.565
PCSat 26 Apr 08:13:46 08:19:01 55° 115° (ESE) 08:24:20 145.827
CUTE-I 26 Apr 08:14:39 08:19:26 34° 292° (WNW) 08:24:08 437.470
DOVE 4 26 Apr 08:24:33 08:26:56 14° 87° (E) 08:29:39 437.250
Cubesat XI-IV 26 Apr 08:24:40 08:29:11 28° 294° (WNW) 08:33:36 437.490
STRAND 1 26 Apr 08:35:50 08:38:12 13° 272° (W) 08:40:17 437.568
CANX-2 26 Apr 08:37:21 08:40:03 17° 90° (E) 08:42:53 2200.000
CUTE 1.7 + AOD 2 26 Apr 08:46:10 08:49:10 19° 91° (E) 08:52:16 437.475
HO-68 26 Apr 09:01:18 09:07:51 38° 96° (E) 09:14:27 435.675
CINEMA 3 26 Apr 09:04:06 09:07:12 17° 89° (E) 09:10:31 145.822/145.860
O/OREOS (USA 219) 26 Apr 09:25:50 09:29:09 20° 258° (WSW) 09:32:18 437.305
UWE-3 26 Apr 09:26:05 09:26:59 11° 86° (E) 09:28:12 435.000/436.395/437.385
GOMX 1 26 Apr 09:26:30 09:31:40 76° 101° (E) 09:37:06 467.674
Cosmos 2491 26 Apr 09:27:21 09:35:47 48° 73° (ENE) 09:44:15 435.465 / 435.565
COMPASS 1 26 Apr 09:36:05 09:40:07 44° 98° (E) 09:44:08 437.405
BRITE-PL 26 Apr 09:42:17 09:47:16 54° 287° (WNW) 09:52:33 437.365/2234.400
ANTELSAT 26 Apr 09:43:06 09:46:41 24° 67° (ENE) 09:50:25 437.575/2403.000
QB50P1 26 Apr 09:45:10 09:46:17 11° 63° (ENE) 09:47:37 145.935-145.965
DELFI C3 26 Apr 09:50:16 09:53:04 18° 92° (E) 09:55:58 145.870
Oscar 11 26 Apr 09:55:09 09:58:57 29° 95° (E) 10:02:46 145.826/435.025
ZACube-1 26 Apr 09:57:43 10:00:55 19° 91° (E) 10:04:15 437.345
PCSat 26 Apr 09:58:18 10:02:48 25° 314° (NW) 10:07:15 145.827
DOVE 4 26 Apr 10:00:08 10:05:16 77° 285° (WNW) 10:10:33 437.250
SEEDS 26 Apr 10:02:29 10:06:44 73° 284° (WNW) 10:10:56 437.485
QB50P2 26 Apr 10:09:19 10:12:24 21° 67° (ENE) 10:15:37 145.880/145.840
CANX-2 26 Apr 10:12:11 10:16:16 43° 288° (WNW) 10:20:17 2200.000
AAUSAT CUBESAT 2 26 Apr 10:18:04 10:22:16 70° 285° (WNW) 10:26:24 437.432
CUTE 1.7 + AOD 2 26 Apr 10:21:17 10:25:16 38° 289° (WNW) 10:29:12 437.475
BEESAT 3 26 Apr 10:22:44 10:25:35 18° 42° (NE) 10:28:30 437.485
SO-50 26 Apr 10:22:51 10:24:13 11° 108° (ESE) 10:25:52 436.795
BEESAT 2 26 Apr 10:25:05 10:27:46 17° 41° (NE) 10:30:31 435.950
NANOSAT C BR1 26 Apr 10:26:22 10:30:00 29° 70° (ENE) 10:33:42 145.865
POPSAT HIP 1 26 Apr 10:29:45 10:33:29 32° 70° (ENE) 10:37:17 437.405
DX 1 26 Apr 10:30:07 10:33:33 23° 94° (E) 10:37:03 434.975-435.025
TIGRISAT 26 Apr 10:31:55 10:36:24 71° 75° (ENE) 10:41:03 435.000
YUBILEINY 26 Apr 10:33:01 10:41:22 51° 90° (E) 10:49:47 435.215
CUBEBUG 2 26 Apr 10:34:41 10:39:29 70° 102° (ESE) 10:44:13 437.445
50 SAT 26 Apr 10:34:59 10:36:24 12° 88° (E) 10:38:02 437.505
UNISAT 6 26 Apr 10:36:30 10:41:02 82° 75° (ENE) 10:45:42 437.425
CINEMA 3 26 Apr 10:39:53 10:44:48 59° 286° (WNW) 10:49:44 145.822/145.860
AIST 1 26 Apr 10:40:19 10:41:37 11° 66° (ENE) 10:43:09
HO-68 26 Apr 10:48:56 10:55:41 44° 295° (WNW) 11:02:19 435.675
BUGSAT 1 26 Apr 10:50:51 10:54:32 37° 71° (ENE) 10:58:17 437.445
POLYITAN 1 26 Apr 10:59:17 11:03:29 71° 76° (ENE) 11:07:44 437.675
UWE-3 26 Apr 10:59:28 11:04:11 80° 286° (WNW) 11:08:52 435.000/436.395/437.385
DUCHIFAT 1 26 Apr 10:59:29 11:03:38 68° 75° (ENE) 11:07:51 145.980
ESTCUBE 1 26 Apr 11:04:04 11:06:18 14° 89° (E) 11:08:45 437.505/2401.250
GOMX 1 26 Apr 11:06:17 11:09:19 15° 296° (WNW) 11:12:12 467.674
FUNcube-1 26 Apr 11:07:15 11:11:53 83° 284° (WNW) 11:16:27 145.935
UKube-1 26 Apr 11:11:39 11:15:57 60° 101° (E) 11:20:13 .
COMPASS 1 26 Apr 11:12:44 11:15:29 17° 294° (WNW) 11:18:05 437.405
QB50P1 26 Apr 11:17:25 11:21:37 73° 258° (WSW) 11:25:52 145.935-145.965
ANTELSAT 26 Apr 11:19:04 11:23:17 36° 264° (W) 11:27:34 437.575/2403.000
HUMSAT D 26 Apr 11:22:29 11:26:50 72° 101° (ESE) 11:31:08 437.325/437.525
Cosmos 2491 26 Apr 11:24:31 11:32:33 39° 273° (W) 11:40:25 435.465 / 435.565
DELFI C3 26 Apr 11:24:40 11:28:22 34° 289° (WNW) 11:32:00 145.870
ISS 26 Apr 11:29:18 11:32:10 29° 137° (SE) 11:35:04 145.825
AIST 2 26 Apr 11:29:24 11:32:49 23° 44° (NE) 11:36:13 435.215
Oscar 11 26 Apr 11:31:26 11:35:04 26° 292° (WNW) 11:38:36 145.826/435.025
ZACube-1 26 Apr 11:33:07 11:37:32 44° 288° (WNW) 11:41:53 437.345
VELOX 1 26 Apr 11:39:25 11:43:49 59° 100° (E) 11:48:13 145.980
DOVE 4 26 Apr 11:41:01 11:42:19 11° 299° (WNW) 11:43:20 437.250
CUBEBUG 1 26 Apr 11:43:00 11:46:53 31° 96° (E) 11:50:48 437.445
QB50P2 26 Apr 11:44:12 11:48:06 35° 263° (W) 11:52:01 145.880/145.840
AISAT 26 Apr 11:57:35 12:02:04 85° 284° (WNW) 12:06:32 437.250
SO-50 26 Apr 11:59:25 12:04:05 84° 301° (WNW) 12:08:57 436.795
BEESAT 3 26 Apr 11:59:56 12:03:57 54° 241° (WSW) 12:07:53 437.485
BEESAT 2 26 Apr 12:02:13 12:06:19 63° 240° (WSW) 12:10:19 435.950
NANOSAT C BR1 26 Apr 12:02:26 12:05:53 24° 266° (W) 12:09:16 145.865
DX 1 26 Apr 12:05:56 12:09:53 33° 290° (WNW) 12:13:46 434.975-435.025
POPSAT HIP 1 26 Apr 12:06:08 12:09:27 22° 267° (W) 12:12:42 437.405
50 SAT 26 Apr 12:07:40 12:11:39 55° 286° (WNW) 12:15:34 437.505
TIGRISAT 26 Apr 12:12:06 12:13:48 12° 274° (W) 12:15:13 435.000
CUBEBUG 2 26 Apr 12:13:01 12:15:38 14° 297° (WNW) 12:18:04 437.445
AIST 1 26 Apr 12:15:35 12:19:49 63° 265° (W) 12:24:02
BUGSAT 1 26 Apr 12:27:28 12:30:12 17° 268° (W) 12:32:50 437.445
TISAT 1 26 Apr 12:27:42 12:30:49 20° 93° (E) 12:34:03 437.305
YUBILEINY 26 Apr 12:30:25 12:38:30 37° 291° (WNW) 12:46:27 435.215
ESTCUBE 1 26 Apr 12:39:12 12:43:37 57° 287° (WNW) 12:48:00 437.505/2401.250
DUCHIFAT 1 26 Apr 12:39:24 12:40:02 10° 273° (W) 12:40:23 145.980
Cosmos 2504 26 Apr 12:40:12 12:47:42 33° 85° (E) 12:55:19 435.465 / 435.565
Oscar 19 26 Apr 12:44:54 12:49:27 34° 68° (ENE) 12:54:07 437.125/150
UKube-1 26 Apr 12:49:21 12:51:39 14° 297° (WNW) 12:53:47 .
RS-15 26 Apr 12:58:13 13:05:49 24° 103° (ESE) 13:14:02 29.354- 29.394
HUMSAT D 26 Apr 13:00:21 13:02:04 12° 297° (WNW) 13:03:34 437.325/437.525
SPROUT 26 Apr 13:00:21 13:04:39 60° 100° (E) 13:08:56 437.525
ISS 26 Apr 13:05:24 13:08:28 37° 334° (NNW) 13:11:33 145.825
AIST 2 26 Apr 13:07:34 13:11:35 41° 243° (WSW) 13:15:29 435.215
VELOX 1 26 Apr 13:17:27 13:19:58 15° 296° (WNW) 13:22:19 145.980
CUBEBUG 1 26 Apr 13:19:34 13:23:08 24° 292° (WNW) 13:26:38 437.445
AO-7 26 Apr 13:20:33 13:22:10 11° 42° (NE) 13:24:17 29.400- 29.500
ITAMSAT 1 26 Apr 13:21:57 13:26:00 24° 65° (ENE) 13:30:10 435.822/435.867
BEESAT 26 Apr 13:25:32 13:27:57 14° 89° (E) 13:30:37 436.000
SWISSCUBE 26 Apr 13:27:49 13:30:43 16° 90° (E) 13:33:48 437.505
SO-50 26 Apr 13:42:30 13:45:28 16° 325° (NW) 13:48:21 436.795
Gurwin Techsat 1B 26 Apr 13:55:30 14:00:26 42° 70° (ENE) 14:05:27 435.225
TISAT 1 26 Apr 14:02:50 14:06:44 35° 289° (WNW) 14:10:36 437.305
Oscar 19 26 Apr 14:24:17 14:28:50 30° 265° (W) 14:33:21 437.125/150
HORYU 2 26 Apr 14:27:56 14:30:38 16° 64° (ENE) 14:33:31 437.375
ITUPSAT 1 26 Apr 14:31:15 14:36:01 65° 102° (ESE) 14:40:44 437.325
Cosmos 2504 26 Apr 14:32:02 14:40:46 58° 284° (WNW) 14:49:22 435.465 / 435.565
SPROUT 26 Apr 14:38:02 14:40:18 14° 296° (WNW) 14:42:24 437.525
ISS 26 Apr 14:43:20 14:45:29 16° 354° (N) 14:47:39 145.825
KKS-1 26 Apr 14:43:36 14:46:23 16° 91° (E) 14:49:21 437.445
JAS-2 26 Apr 14:49:04 14:55:34 31° 64° (ENE) 15:02:00 435.910
ITAMSAT 1 26 Apr 15:00:20 15:05:17 44° 262° (W) 15:10:13 435.822/435.867
GONETS M04 26 Apr 15:00:20 15:04:47 16° 77° (ENE) 15:09:49
BEESAT 26 Apr 15:01:36 15:06:19 62° 286° (WNW) 15:11:00 436.000
SWISSCUBE 26 Apr 15:04:19 15:08:58 53° 288° (WNW) 15:13:35 437.505
AO-7 26 Apr 15:05:22 15:13:04 46° 63° (ENE) 15:20:52 29.400- 29.500
RS-15 26 Apr 15:06:00 15:16:54 87° 304° (WNW) 15:28:07 29.354- 29.394
PCSat 26 Apr 15:20:16 15:21:31 11° 32° (NNE) 15:22:58 145.827
STARS 26 Apr 15:35:05 15:39:11 36° 97° (E) 15:43:19 437.465
Gurwin Techsat 1B 26 Apr 15:36:12 15:40:36 26° 267° (W) 15:44:56 435.225
VERMONT LUNAR 26 Apr 15:57:27 15:59:42 17° 152° (SSE) 16:02:01 437.305
HORYU 2 26 Apr 16:02:30 16:06:54 54° 260° (W) 16:11:20 437.375
ITUPSAT 1 26 Apr 16:10:38 16:13:26 15° 297° (WNW) 16:16:02 437.325
KKS-1 26 Apr 16:19:01 16:23:21 48° 288° (WNW) 16:27:40 437.445
ISS 26 Apr 16:20:16 16:22:44 19° 14° (NNE) 16:25:13 145.825
CUSAT 1 26 Apr 16:21:57 16:23:59 14° 81° (E) 16:26:29 437.405
JAS-2 26 Apr 16:32:24 16:40:12 63° 260° (W) 16:47:45 435.910
Cosmos 2504 26 Apr 16:33:16 16:36:33 12° 308° (NW) 16:39:10 435.465 / 435.565
PHONESAT 2.4 26 Apr 16:35:43 16:37:29 13° 149° (SSE) 16:39:21 2401.200-2431.200
GONETS M04 26 Apr 16:51:38 17:00:23 82° 96° (E) 17:09:16
MOZHAYETS 4 26 Apr 16:52:53 16:56:47 27° 94° (E) 17:00:41
AO-7 26 Apr 16:58:11 17:05:58 42° 262° (W) 17:13:41 29.400- 29.500
PCSat 26 Apr 17:01:07 17:06:23 49° 54° (NE) 17:11:38 145.827
Cosmos 2499 26 Apr 17:01:39 17:06:36 17° 79° (E) 17:11:58 435.465 / 435.565
DANDE 26 Apr 17:06:21 17:09:21 28° 88° (E) 17:13:12 436.750
STARS 26 Apr 17:11:58 17:15:28 22° 293° (WNW) 17:18:52 437.465
RS-15 26 Apr 17:21:30 17:31:06 32° 331° (NNW) 17:40:52 29.354- 29.394
VERMONT LUNAR 26 Apr 17:33:29 17:36:46 49° 167° (SSE) 17:40:03 437.305
ISS 26 Apr 17:56:16 17:59:32 71° 32° (NNE) 18:02:47 145.825
CUTE-I 26 Apr 17:56:53 18:02:03 55° 72° (ENE) 18:07:15 437.470
CUSAT 1 26 Apr 18:02:23 18:05:58 41° 289° (WNW) 18:10:42 437.405
Cubesat XI-IV 26 Apr 18:06:42 18:11:58 68° 74° (ENE) 18:17:18 437.490
PHONESAT 2.4 26 Apr 18:11:49 18:15:13 42° 164° (SSE) 18:18:38 2401.200-2431.200
JAS-2 26 Apr 18:24:27 18:26:46 11° 279° (W) 18:28:21 435.910
MOZHAYETS 4 26 Apr 18:29:59 18:34:00 30° 291° (WNW) 18:37:57
CUBESAT XI-V 26 Apr 18:32:18 18:36:00 24° 93° (E) 18:39:48 437.345
PRISM 26 Apr 18:39:12 18:41:26 15° 91° (E) 18:43:51 437.425
PCSat 26 Apr 18:45:09 18:49:32 25° 251° (WSW) 18:53:47 145.827
Cosmos 2499 26 Apr 18:49:49 18:58:44 84° 96° (E) 19:07:23 435.465 / 435.565
DANDE 26 Apr 18:50:12 18:52:53 18° 298° (WNW) 18:55:58 436.750
SO-50 26 Apr 18:50:53 18:54:16 18° 37° (NE) 18:57:44 436.795
GONETS M04 26 Apr 18:51:46 18:58:29 23° 299° (WNW) 19:04:55
STRAND 1 26 Apr 19:03:53 19:07:58 24° 93° (E) 19:12:09 437.568
M-CUBED/EXP-1 PRIME 26 Apr 19:05:26 19:09:26 43° 103° (ESE) 19:13:07 437.505
VERMONT LUNAR 26 Apr 19:10:44 19:14:06 65° 184° (S) 19:17:27 437.305
BRITE-PL 26 Apr 19:17:31 19:20:22 19° 66° (ENE) 19:23:26 437.365/2234.400
HO-68 26 Apr 19:30:49 19:36:51 31° 61° (ENE) 19:43:02 435.675
CANX-2 26 Apr 19:31:40 19:33:53 14° 65° (ENE) 19:36:16 2200.000
DOVE 4 26 Apr 19:32:10 19:33:45 12° 61° (ENE) 19:35:35 437.250
ISS 26 Apr 19:33:45 19:35:33 14° 228° (SW) 19:37:15 145.825
CUTE-I 26 Apr 19:38:41 19:42:32 19° 269° (W) 19:46:13 437.470
RS-15 26 Apr 19:39:56 19:48:15 23° 5° (N) 19:56:52 29.354- 29.394
CUTE 1.7 + AOD 2 26 Apr 19:40:15 19:42:48 16° 65° (ENE) 19:45:30 437.475
AUBIESAT-1 26 Apr 19:46:43 19:50:53 70° 291° (WNW) 19:54:39 437.475
Cubesat XI-IV 26 Apr 19:49:27 19:52:41 15° 271° (W) 19:55:40 437.490
PHONESAT 2.4 26 Apr 19:49:43 19:53:17 68° 181° (S) 19:56:52 2401.200-2431.200
CINEMA 3 26 Apr 20:07:23 20:09:47 15° 63° (ENE) 20:12:26 145.822/145.860
CUBESAT XI-V 26 Apr 20:09:22 20:13:32 34° 290° (WNW) 20:17:40 437.345
PRISM 26 Apr 20:13:17 20:17:13 45° 288° (WNW) 20:21:07 437.425
COMPASS 1 26 Apr 20:27:52 20:31:39 33° 71° (ENE) 20:35:30 437.405
SO-50 26 Apr 20:30:30 20:35:29 84° 240° (WSW) 20:40:25 436.795
GOMX 1 26 Apr 20:35:49 20:40:01 82° 76° (ENE) 20:44:28 467.674
DELFI C3 26 Apr 20:39:24 20:41:22 14° 65° (ENE) 20:43:32 145.870
M-CUBED/EXP-1 PRIME 26 Apr 20:41:06 20:43:57 17° 302° (WNW) 20:46:33 437.505
STRAND 1 26 Apr 20:42:35 20:47:20 41° 291° (WNW) 20:52:05 437.568
YUBILEINY 26 Apr 20:42:58 20:49:46 25° 63° (ENE) 20:56:49 435.215
Cosmos 2499 26 Apr 20:46:16 20:53:02 23° 298° (WNW) 20:59:17 435.465 / 435.565
VERMONT LUNAR 26 Apr 20:48:17 20:51:20 31° 201° (SSW) 20:54:22 437.305
Oscar 11 26 Apr 20:50:39 20:54:11 25° 69° (ENE) 20:57:49 145.826/435.025
SEEDS 26 Apr 20:54:39 20:58:55 82° 79° (E) 21:03:14 437.485
BRITE-PL 26 Apr 20:54:48 20:58:41 38° 263° (W) 21:02:42 437.365/2234.400
ZACube-1 26 Apr 20:54:56 20:57:35 16° 65° (ENE) 21:00:26 437.345
CANX-2 26 Apr 21:05:09 21:09:23 57° 260° (W) 21:13:39 2200.000
DOVE 4 26 Apr 21:06:41 21:10:56 70° 259° (W) 21:15:25 437.250
AAUSAT CUBESAT 2 26 Apr 21:08:59 21:13:13 83° 77° (ENE) 21:17:28 437.432
CUTE 1.7 + AOD 2 26 Apr 21:14:10 21:18:21 50° 261° (W) 21:22:34 437.475
HO-68 26 Apr 21:17:14 21:24:17 55° 259° (W) 21:31:20 435.675
DX 1 26 Apr 21:26:34 21:29:51 22° 67° (ENE) 21:33:14 434.975-435.025
PHONESAT 2.4 26 Apr 21:27:57 21:31:21 41° 197° (SSW) 21:34:45 2401.200-2431.200
CUBEBUG 2 26 Apr 21:33:20 21:37:38 60° 74° (ENE) 21:42:09 437.445
CINEMA 3 26 Apr 21:42:14 21:46:30 58° 260° (W) 21:51:02 145.822/145.860
RS-15 26 Apr 21:54:14 22:04:51 42° 38° (NE) 22:16:00 29.354- 29.394
UWE-3 26 Apr 21:56:53 22:01:16 88° 77° (ENE) 22:05:48 435.000/436.395/437.385
O/OREOS (USA 219) 26 Apr 21:58:17 22:02:36 43° 107° (ESE) 22:06:56 437.305
FUNcube-1 26 Apr 22:03:14 22:07:34 81° 78° (ENE) 22:12:04 145.935
COMPASS 1 26 Apr 22:04:07 22:07:26 21° 267° (W) 22:10:40 437.405
ESTCUBE 1 26 Apr 22:04:39 22:07:07 15° 64° (ENE) 22:09:47 437.505/2401.250
UKube-1 26 Apr 22:06:52 22:11:04 54° 73° (ENE) 22:15:19 .
DELFI C3 26 Apr 22:12:07 22:16:07 53° 260° (W) 22:20:09 145.870
SO-50 26 Apr 22:14:32 22:15:22 10° 253° (WSW) 22:15:52 436.795
HUMSAT D 26 Apr 22:14:36 22:18:43 52° 74° (ENE) 22:22:56 437.325/437.525
TIGRISAT 26 Apr 22:24:40 22:27:18 15° 89° (E) 22:30:08 435.000
Oscar 11 26 Apr 22:26:25 22:30:17 30° 265° (W) 22:34:08 145.826/435.025
Cosmos 2491 26 Apr 22:28:56 22:37:14 53° 90° (E) 22:45:42 435.465 / 435.565
UNISAT 6 26 Apr 22:29:12 22:32:16 18° 90° (E) 22:35:28 437.425
ZACube-1 26 Apr 22:29:19 22:33:33 51° 261° (W) 22:37:57 437.345
Cosmos 2504 26 Apr 22:36:12 22:36:52 10° 50° (NE) 22:38:08 435.465 / 435.565
VELOX 1 26 Apr 22:37:28 22:41:46 56° 73° (ENE) 22:46:06 145.980
YUBILEINY 26 Apr 22:38:52 22:47:36 73° 266° (W) 22:56:14 435.215
CUBEBUG 1 26 Apr 22:39:54 22:43:33 28° 69° (ENE) 22:47:18 437.445
DUCHIFAT 1 26 Apr 22:46:26 22:47:18 11° 87° (E) 22:48:26 145.980
POLYITAN 1 26 Apr 22:46:32 22:47:53 12° 88° (E) 22:49:30 437.675
50 SAT 26 Apr 22:53:00 22:57:00 89° 84° (E) 23:01:04 437.505
AISAT 26 Apr 22:55:45 23:00:09 89° 256° (WSW) 23:04:35 437.250
DX 1 26 Apr 23:01:57 23:05:56 35° 263° (W) 23:09:54 434.975-435.025
QB50P1 26 Apr 23:03:04 23:05:54 18° 91° (E) 23:08:54 145.935-145.965
PHONESAT 2.4 26 Apr 23:07:21 23:09:04 13° 212° (SSW) 23:10:42 2401.200-2431.200
ANTELSAT 26 Apr 23:10:16 23:14:48 46° 98° (E) 23:19:17 437.575/2403.000
CUBEBUG 2 26 Apr 23:12:43 23:14:53 13° 273° (W) 23:16:51 437.445
